Location: Unspecified
(0.0000°N, 0.0000°E)
Time: 19:27:07
(UTC+00:00)

Envisat - Pass Details

Date: 19 February 2019
Orbit: 764 x 766 km, 98.1° (Epoch: 19 August)

Event Time Altitude Azimuth Distance (km) Brightness Sun altitude
Rises 19:14:57 0° 172° (S) 3,228 6.3 -15.0°
Reaches altitude 10° 19:17:16 10° 174° (S) 2,300 5.5 -15.6°
Maximum altitude 19:22:19 72° 258° (WSW) 804 3.2 -16.8°
Drops below altitude 10° 19:27:21 10° 342° (NNW) 2,292 5.5 -18.0°
Sets 19:29:40 0° 344° (NNW) 3,216 6.3 -18.6°
